Track YAOGAN 17B now! 10-day predictions YAOGAN 17B is classified as:
1 39240U 13046B 25346.34960955 .00000096 00000-0 18975-3 0 9991 2 39240 63.3875 212.6759 0409782 10.5476 350.3826 13.45447200603193